Weather History for Defiance, OH

Change the Weather History Date:

Wednesday, December 12, 2012

  Actual Average Record
Temperature  
Mean Temperature 32 °F -  
Max Temperature 42 °F 37 °F 63 °F (1949)
Min Temperature 23 °F 21 °F -8 °F (1962)
Degree Days  
Heating Degree Days 32    
Moisture  
Dew Point 23 °F    
Average Humidity 73    
Maximum Humidity 88    
Minimum Humidity 49    
Precipitation  
Precipitation 0.00 in - - ()
Sea Level Pressure  
Sea Level Pressure 30.35 in    
Wind  
Wind Speed 6 mph (SSW)    
Max Wind Speed 10 mph    
Max Gust Speed -    
Visibility 10 miles    
Events      
Averages and records for this station are not official NWS values.
T = Trace of Precipitation, MM = Missing Value Source: NWS Daily Summary

Daily Weather History Graph

Daily Weather History Graph

Search for Another Location

Airport:

Trip Planner

Search our weather history database for the weather conditions in past years. The results will help you decide how hot, cold, wet, or windy it might be!

Date:

Astronomy

Dec. 12, 2012 Rise Set
Actual Time 7:54 AM EST 5:08 PM EST
Civil Twilight 7:23 AM EST 5:39 PM EST
Nautical Twilight 6:48 AM EST 6:14 PM EST
Astronomical Twilight 6:15 AM EST 6:48 PM EST
Moon 6:57 AM EST (12/12) 4:45 PM EST (12/12)
Length of Visible Light 10h 16m
Length of Day
9h 13m
Waning Crescent, 1% of the Moon is Illuminated
Dec 12
Waning Crescent
Dec 13
New
Dec 20
First Quarter
Dec 28
Full
Jan 4
Last Quarter

Hourly Weather History & Observations

Time (EST) Temp. Windchill Dew Point Humidity Pressure Visibility Wind Dir Wind Speed Gust Speed Precip Events Conditions
12:53 AM 28.9 °F 21.1 °F 23.0 °F 78% 30.23 in 10.0 mi SSW 8.1 mph - N/A   Clear
1:53 AM 27.0 °F 20.5 °F 21.9 °F 81% 30.25 in 10.0 mi SSW 5.8 mph - N/A   Clear
2:53 AM 26.1 °F 20.5 °F 21.0 °F 81% 30.27 in 10.0 mi SSW 4.6 mph - N/A   Clear
3:53 AM 26.1 °F 19.4 °F 21.9 °F 84% 30.28 in 10.0 mi SSW 5.8 mph - N/A   Clear
4:53 AM 24.1 °F 17.0 °F 21.0 °F 88% 30.29 in 9.0 mi SSW 5.8 mph - N/A   Clear
5:53 AM 24.1 °F 18.2 °F 19.9 °F 84% 30.31 in 8.0 mi SSW 4.6 mph - N/A   Clear
6:53 AM 23.0 °F 15.8 °F 19.0 °F 85% 30.33 in 8.0 mi South 5.8 mph - N/A   Clear
7:53 AM 24.1 °F 16.0 °F 19.9 °F 84% 30.35 in 8.0 mi SSW 6.9 mph - N/A   Clear
8:53 AM 28.0 °F 20.8 °F 23.0 °F 81% 30.35 in 8.0 mi SSW 6.9 mph - N/A   Clear
9:53 AM 30.9 °F 22.2 °F 23.0 °F 72% 30.38 in 10.0 mi SW 10.4 mph - N/A   Clear
10:53 AM 34.0 °F 26.6 °F 25.0 °F 70% 30.39 in 10.0 mi SSW 9.2 mph - N/A   Clear
11:53 AM 37.0 °F 32.4 °F 26.1 °F 65% 30.39 in 10.0 mi SW 5.8 mph - N/A   Clear
12:53 PM 39.9 °F 34.5 °F 26.1 °F 58% 30.38 in 10.0 mi SW 8.1 mph - N/A   Clear
1:53 PM 42.1 °F 37.1 °F 25.0 °F 51% 30.38 in 10.0 mi SW 8.1 mph - N/A   Clear
2:53 PM 42.1 °F 36.6 °F 24.1 °F 49% 30.36 in 10.0 mi SSW 9.2 mph - N/A   Clear
3:53 PM 41.0 °F 36.4 °F 24.1 °F 51% 30.36 in 10.0 mi SSW 6.9 mph - N/A   Clear
4:53 PM 37.0 °F 34.5 °F 24.1 °F 59% 30.37 in 10.0 mi SSW 3.5 mph - N/A   Clear
5:53 PM 35.1 °F - 24.1 °F 64% 30.38 in 10.0 mi Calm Calm - N/A   Clear
6:53 PM 30.0 °F 26.5 °F 23.0 °F 75% 30.40 in 10.0 mi SSE 3.5 mph - N/A   Clear
7:53 PM 28.0 °F 24.2 °F 23.0 °F 81% 30.40 in 10.0 mi SSE 3.5 mph - N/A   Clear
8:53 PM 28.0 °F - 23.0 °F 81% 30.41 in 10.0 mi Calm Calm - N/A   Clear
9:53 PM 30.0 °F 25.2 °F 25.0 °F 82% 30.41 in 10.0 mi South 4.6 mph - N/A   Clear
10:53 PM 30.0 °F 26.5 °F 24.1 °F 79% 30.41 in 10.0 mi SSE 3.5 mph - N/A   Clear
11:53 PM 28.9 °F 25.2 °F 23.0 °F 78% 30.40 in 10.0 mi South 3.5 mph - N/A   Clear